Location: Bailey Inglish Elementary School
(33.5826°N, 96.1780°W)
Time: 16:38:38
(UTC+00:00)

ISS - Pass Details

Date: 27 June 2024
Orbit: 410 x 424 km, 51.6° (Epoch: 16 July)

Event Time Altitude Azimuth Distance (km) Brightness Sun altitude
Exits shadow 07:58:26 16° 41° (NE) 1,191 -0.7 -29.2°
Drops below altitude 10° 07:59:10 10° 42° (NE) 1,483 -0.1 -29.1°
Sets 08:01:17 0° 45° (NE) 2,352 1.1 -28.9°
